Location: Newark
(30.0333°N, 31.2167°E)
Time: 00:34:22
(UTC+00:00)

Tiros 1 - Pass Details

Date: 29 January 2020
Orbit: 631 x 664 km, 48.4° (Epoch: 24 February)

Event Time Altitude Azimuth Distance (km) Brightness Sun altitude
Rises 16:11:33 0° 306° (NW) 2,974 11.2 -9.6°
Reaches altitude 10° 16:13:55 10° 302° (WNW) 2,065 10.4 -10.1°
Maximum altitude 16:18:34 54° 226° (SW) 800 8.0 -11.0°
Drops below altitude 10° 16:23:13 10° 149° (SSE) 2,068 9.6 -12.0°
Sets 16:25:36 0° 145° (SE) 2,979 10.3 -12.5°
